Location: Newark
(48.2308°N, 120.8549°W)
Time: 22:21:07
(UTC+00:00)

Transit 2A Rocket - Pass Details

Date: 28 May 2020
Orbit: 584 x 919 km, 66.7° (Epoch: 10 July)

Event Time Altitude Azimuth Distance (km) Brightness Sun altitude
Rises 12:48:59 0° 322° (NW) 3,404 8.2 4.8°
Reaches altitude 10° 12:52:21 10° 343° (NNW) 2,522 7.8 5.3°
Maximum altitude 12:56:08 17° 23° (NNE) 2,102 8.1 5.9°
Drops below altitude 10° 13:00:00 10° 63° (ENE) 2,602 11.1 6.4°
Sets 13:03:33 0° 82° (E) 3,558 10.2 7.0°
